Time,TemperatureF,DewpointF,PressureIn,WindDirection,WindDirectionDegrees,WindSpeedMPH,WindSpeedGustMPH,Humidity,HourlyPrecipIn,Conditions,Clouds,dailyrainin,SolarRadiationWatts/m^2,SoftwareType,DateUTC
2013-06-19 00:02:00,64.0,62.0,30.01,North,11,10.0,21.0,92,0.00,,,0.19,0.000000,,2013-06-19 04:02:00,
2013-06-19 00:10:00,62.0,59.0,30.02,NNE,14,9.0,18.0,91,0.00,,,0.19,0.000000,,2013-06-19 04:10:00,
2013-06-19 00:43:00,62.0,59.0,30.02,NNE,14,9.0,18.0,91,0.00,,,0.19,0.000000,,2013-06-19 04:43:00,
2013-06-19 00:53:00,62.0,59.0,30.02,NNE,14,9.0,18.0,91,0.00,,,0.19,0.000000,,2013-06-19 04:53:00,
2013-06-19 01:01:00,62.0,59.0,30.02,NNE,14,9.0,18.0,91,0.00,,,0.19,0.000000,,2013-06-19 05:01:00,
2013-06-19 01:10:00,63.0,60.0,30.03,NNE,13,8.0,16.0,90,0.00,,,0.19,0.000000,,2013-06-19 05:10:00,
2013-06-19 01:32:00,63.0,60.0,30.03,NNE,13,8.0,16.0,90,0.00,,,0.19,0.000000,,2013-06-19 05:32:00,
2013-06-19 01:43:00,63.0,60.0,30.03,NNE,13,8.0,16.0,90,0.00,,,0.19,0.000000,,2013-06-19 05:43:00,
2013-06-19 01:52:00,63.0,60.0,30.03,NNE,13,8.0,16.0,90,0.00,,,0.19,0.000000,,2013-06-19 05:52:00,
2013-06-19 02:02:00,63.0,60.0,30.03,NNE,13,8.0,16.0,90,0.00,,,0.19,0.000000,,2013-06-19 06:02:00,
2013-06-19 02:10:00,62.0,60.0,30.02,NNE,13,9.0,17.0,92,0.00,,,0.19,0.000000,,2013-06-19 06:10:00,
2013-06-19 02:43:00,62.0,60.0,30.02,NNE,13,9.0,17.0,92,0.00,,,0.19,0.000000,,2013-06-19 06:43:00,
2013-06-19 02:52:00,62.0,60.0,30.02,NNE,13,9.0,17.0,92,0.00,,,0.19,0.000000,,2013-06-19 06:52:00,
2013-06-19 03:01:00,62.0,60.0,30.02,NNE,13,9.0,17.0,92,0.00,,,0.19,0.000000,,2013-06-19 07:01:00,
2013-06-19 03:10:00,60.0,58.0,30.01,NNE,12,9.0,18.0,92,0.00,,,0.19,0.000000,,2013-06-19 07:10:00,
2013-06-19 03:33:00,60.0,58.0,30.01,NNE,12,9.0,18.0,92,0.00,,,0.19,0.000000,,2013-06-19 07:33:00,
2013-06-19 03:43:00,60.0,58.0,30.01,NNE,12,9.0,18.0,92,0.00,,,0.19,0.000000,,2013-06-19 07:43:00,
2013-06-19 03:53:00,60.0,58.0,30.01,NNE,12,9.0,18.0,92,0.00,,,0.19,0.000000,,2013-06-19 07:53:00,
2013-06-19 04:02:00,60.0,58.0,30.01,NNE,12,9.0,18.0,92,0.00,,,0.19,0.000000,,2013-06-19 08:02:00,
2013-06-19 04:10:00,60.0,58.0,30.02,NNE,12,8.0,16.0,92,0.00,,,0.19,0.000000,,2013-06-19 08:10:00,
2013-06-19 04:43:00,60.0,58.0,30.02,NNE,12,8.0,16.0,92,0.00,,,0.19,0.000000,,2013-06-19 08:43:00,
2013-06-19 04:54:00,60.0,58.0,30.02,NNE,12,8.0,16.0,92,0.00,,,0.19,0.000000,,2013-06-19 08:54:00,
2013-06-19 05:02:00,60.0,58.0,30.02,NNE,12,8.0,16.0,92,0.00,,,0.19,0.000000,,2013-06-19 09:02:00,
2013-06-19 05:10:00,60.0,57.0,30.03,NNE,13,8.0,14.0,89,0.00,,,0.19,0.000000,,2013-06-19 09:10:00,
2013-06-19 05:44:00,60.0,57.0,30.03,NNE,13,8.0,14.0,89,0.00,,,0.19,0.000000,,2013-06-19 09:44:00,
2013-06-19 05:53:00,60.0,57.0,30.03,NNE,13,8.0,14.0,89,0.00,,,0.19,0.000000,,2013-06-19 09:53:00,
2013-06-19 06:02:00,60.0,57.0,30.03,NNE,13,8.0,14.0,89,0.00,,,0.19,0.000000,,2013-06-19 10:02:00,
2013-06-19 06:10:00,61.0,58.0,30.04,NNE,17,7.0,13.0,90,0.00,,,0.19,0.000000,,2013-06-19 10:10:00,
2013-06-19 06:33:00,61.0,58.0,30.04,NNE,17,7.0,13.0,90,0.00,,,0.19,0.000000,,2013-06-19 10:33:00,
2013-06-19 06:43:00,61.0,58.0,30.04,NNE,17,7.0,13.0,90,0.00,,,0.19,0.000000,,2013-06-19 10:43:00,
2013-06-19 06:53:00,61.0,58.0,30.04,NNE,17,7.0,13.0,90,0.00,,,0.19,0.000000,,2013-06-19 10:53:00,
2013-06-19 07:02:00,61.0,58.0,30.04,NNE,17,7.0,13.0,90,0.00,,,0.19,0.000000,,2013-06-19 11:02:00,
2013-06-19 07:10:00,61.0,57.0,30.07,NNE,18,6.0,13.0,87,0.00,,,0.19,0.000000,,2013-06-19 11:10:00,
2013-06-19 07:43:00,61.0,57.0,30.07,NNE,18,6.0,13.0,87,0.00,,,0.19,0.000000,,2013-06-19 11:43:00,
2013-06-19 07:54:00,61.0,57.0,30.07,NNE,18,6.0,13.0,87,0.00,,,0.19,0.000000,,2013-06-19 11:54:00,
2013-06-19 08:02:00,61.0,57.0,30.07,NNE,18,6.0,13.0,87,0.00,,,0.19,0.000000,,2013-06-19 12:02:00,
2013-06-19 08:10:00,65.0,59.0,30.09,NNE,18,7.0,11.0,80,0.00,,,0.19,36.000000,,2013-06-19 12:10:00,
2013-06-19 08:44:00,65.0,59.0,30.09,NNE,18,7.0,11.0,80,0.00,,,0.19,36.000000,,2013-06-19 12:44:00,
2013-06-19 08:53:00,65.0,59.0,30.09,NNE,18,7.0,11.0,80,0.00,,,0.19,36.000000,,2013-06-19 12:53:00,
2013-06-19 09:02:00,65.0,59.0,30.09,NNE,18,7.0,11.0,80,0.00,,,0.19,36.000000,,2013-06-19 13:02:00,
2013-06-19 09:10:00,70.0,60.0,30.12,North,10,5.0,11.0,71,0.00,,,0.19,189.000000,,2013-06-19 13:10:00,
2013-06-19 09:43:00,70.0,60.0,30.12,North,10,5.0,11.0,71,0.00,,,0.19,189.000000,,2013-06-19 13:43:00,
2013-06-19 09:54:00,70.0,60.0,30.12,North,10,5.0,11.0,71,0.00,,,0.19,189.000000,,2013-06-19 13:54:00,
2013-06-19 10:02:00,70.0,60.0,30.12,North,10,5.0,11.0,71,0.00,,,0.19,189.000000,,2013-06-19 14:02:00,
2013-06-19 11:10:00,76.0,58.0,30.13,NE,51,3.0,8.0,53,0.00,,,0.19,709.000000,,2013-06-19 15:10:00,
2013-06-19 11:43:00,76.0,58.0,30.13,NE,51,3.0,8.0,53,0.00,,,0.19,709.000000,,2013-06-19 15:43:00,
2013-06-19 11:53:00,76.0,58.0,30.13,NE,51,3.0,8.0,53,0.00,,,0.19,709.000000,,2013-06-19 15:53:00,
2013-06-19 12:01:00,76.0,58.0,30.13,NE,51,3.0,8.0,53,0.00,,,0.19,709.000000,,2013-06-19 16:01:00,
2013-06-19 12:10:00,78.0,63.0,30.13,SE,146,4.0,7.0,61,0.00,,,0.19,892.000000,,2013-06-19 16:10:00,
2013-06-19 12:43:00,78.0,63.0,30.13,SE,146,4.0,7.0,61,0.00,,,0.19,892.000000,,2013-06-19 16:43:00,
2013-06-19 12:53:00,78.0,63.0,30.13,SE,146,4.0,7.0,61,0.00,,,0.19,892.000000,,2013-06-19 16:53:00,
2013-06-19 13:02:00,78.0,63.0,30.13,SE,146,4.0,7.0,61,0.00,,,0.19,892.000000,,2013-06-19 17:02:00,
2013-06-19 13:10:00,77.0,62.0,30.14,SSE,154,5.0,10.0,59,0.00,,,0.18,814.000000,,2013-06-19 17:10:00,
2013-06-19 13:43:00,77.0,62.0,30.14,SSE,154,5.0,10.0,59,0.00,,,0.18,814.000000,,2013-06-19 17:43:00,
2013-06-19 13:53:00,77.0,62.0,30.14,SSE,154,5.0,10.0,59,0.00,,,0.18,814.000000,,2013-06-19 17:53:00,
2013-06-19 14:02:00,77.0,62.0,30.14,SSE,154,5.0,10.0,59,0.00,,,0.18,814.000000,,2013-06-19 18:02:00,
2013-06-19 14:10:00,78.0,63.0,30.14,West,268,3.0,11.0,61,0.00,,,0.18,975.000000,,2013-06-19 18:10:00,
2013-06-19 14:44:00,78.0,63.0,30.14,West,268,3.0,11.0,61,0.00,,,0.18,975.000000,,2013-06-19 18:44:00,
2013-06-19 14:53:00,78.0,63.0,30.14,West,268,3.0,11.0,61,0.00,,,0.18,975.000000,,2013-06-19 18:53:00,
2013-06-19 15:01:00,78.0,63.0,30.14,West,268,3.0,11.0,61,0.00,,,0.18,975.000000,,2013-06-19 19:01:00,
2013-06-19 15:10:00,77.0,62.0,30.14,WSW,251,3.0,10.0,60,0.00,,,0.10,857.000000,,2013-06-19 19:10:00,
2013-06-19 15:43:00,77.0,62.0,30.14,WSW,251,3.0,10.0,60,0.00,,,0.10,857.000000,,2013-06-19 19:43:00,
2013-06-19 15:53:00,77.0,62.0,30.14,WSW,251,3.0,10.0,60,0.00,,,0.10,857.000000,,2013-06-19 19:53:00,
2013-06-19 16:02:00,77.0,62.0,30.14,WSW,251,3.0,10.0,60,0.00,,,0.10,857.000000,,2013-06-19 20:02:00,
2013-06-19 16:10:00,79.0,63.0,30.12,ESE,119,3.0,9.0,58,0.00,,,0.03,857.000000,,2013-06-19 20:10:00,
2013-06-19 16:43:00,79.0,63.0,30.12,ESE,119,3.0,9.0,58,0.00,,,0.03,857.000000,,2013-06-19 20:43:00,
2013-06-19 16:52:00,79.0,63.0,30.12,ESE,119,3.0,9.0,58,0.00,,,0.03,857.000000,,2013-06-19 20:52:00,
2013-06-19 17:02:00,79.0,63.0,30.12,ESE,119,3.0,9.0,58,0.00,,,0.03,857.000000,,2013-06-19 21:02:00,
2013-06-19 17:10:00,79.0,62.0,30.14,NNE,33,2.0,8.0,56,0.00,,,0.01,676.000000,,2013-06-19 21:10:00,
2013-06-19 17:44:00,79.0,62.0,30.14,NNE,33,2.0,8.0,56,0.00,,,0.01,676.000000,,2013-06-19 21:44:00,
2013-06-19 17:52:00,79.0,62.0,30.14,NNE,33,2.0,8.0,56,0.00,,,0.01,676.000000,,2013-06-19 21:52:00,
2013-06-19 18:02:00,79.0,62.0,30.14,NNE,33,2.0,8.0,56,0.00,,,0.01,676.000000,,2013-06-19 22:02:00,
2013-06-19 18:10:00,71.0,62.0,30.14,WNW,292,1.0,5.0,74,0.00,,,0.00,559.000000,,2013-06-19 22:10:00,
2013-06-19 18:43:00,71.0,62.0,30.14,WNW,292,1.0,5.0,74,0.00,,,0.00,559.000000,,2013-06-19 22:43:00,
2013-06-19 18:53:00,71.0,62.0,30.14,WNW,292,1.0,5.0,74,0.00,,,0.00,559.000000,,2013-06-19 22:53:00,
2013-06-19 19:02:00,71.0,62.0,30.14,WNW,292,1.0,5.0,74,0.00,,,0.00,559.000000,,2013-06-19 23:02:00,
2013-06-19 19:10:00,73.0,66.0,30.16,SE,137,2.0,5.0,79,0.00,,,0.00,155.000000,,2013-06-19 23:10:00,
2013-06-19 19:43:00,73.0,66.0,30.16,SE,137,2.0,5.0,79,0.00,,,0.00,155.000000,,2013-06-19 23:43:00,
2013-06-19 19:52:00,73.0,66.0,30.16,SE,137,2.0,5.0,79,0.00,,,0.00,155.000000,,2013-06-19 23:52:00,
2013-06-19 20:01:00,73.0,66.0,30.16,SE,137,2.0,5.0,79,0.00,,,0.00,155.000000,,2013-06-20 00:01:00,
2013-06-19 21:10:00,63.0,62.0,30.18,NE,37,6.0,11.0,95,-99.99,,,0.00,115.000000,,2013-06-20 01:10:00,
2013-06-19 21:44:00,63.0,62.0,30.18,NE,37,6.0,11.0,95,-99.99,,,0.00,115.000000,,2013-06-20 01:44:00,
2013-06-19 21:53:00,63.0,62.0,30.18,NE,37,6.0,11.0,95,-99.99,,,0.00,115.000000,,2013-06-20 01:53:00,
2013-06-19 22:02:00,63.0,62.0,30.18,NE,37,6.0,11.0,95,-99.99,,,0.00,115.000000,,2013-06-20 02:02:00,
2013-06-19 22:10:00,64.0,62.0,30.21,NNE,20,5.0,8.0,94,0.00,,,0.00,17.000000,,2013-06-20 02:10:00,
2013-06-19 22:43:00,64.0,62.0,30.21,NNE,20,5.0,8.0,94,0.00,,,0.00,17.000000,,2013-06-20 02:43:00,
2013-06-19 22:52:00,64.0,62.0,30.21,NNE,20,5.0,8.0,94,0.00,,,0.00,17.000000,,2013-06-20 02:52:00,
2013-06-19 23:02:00,64.0,62.0,30.21,NNE,20,5.0,8.0,94,0.00,,,0.00,17.000000,,2013-06-20 03:02:00,
2013-06-19 23:10:00,62.0,60.0,30.22,NNE,16,4.0,7.0,94,0.00,,,0.00,0.000000,,2013-06-20 03:10:00,
2013-06-19 23:43:00,62.0,60.0,30.22,NNE,16,4.0,7.0,94,0.00,,,0.00,0.000000,,2013-06-20 03:43:00,
2013-06-19 23:54:00,62.0,60.0,30.22,NNE,16,4.0,7.0,94,0.00,,,0.00,0.000000,,2013-06-20 03:54:00,